Regional Weather Roundup
Issued by NWS

Home | Current Version | Previous Version | Text Only | Print | Product List | Glossary Off
Versions: 1 2 3 4 5 6 7 8 9 10 11 12 13 14 15 16 17 18 19 20 21 22 23 24 25 26 27 28 29 30 31 32 33 34 35 36 37 38 39 40 41 42 43 44 45 46 47 48 49 50

000
ASUS43 KMKX 291011
RWRWI

WISCONSIN REGIONAL WEATHER ROUNDUP
NATIONAL WEATHER SERVICE MILWAUKEE/SULLIVAN WI
500 AM CDT SAT APR 29 2017

NOTE: "FAIR" INDICATES FEW OR NO CLOUDS BELOW 12,000 FEET WITH NO
SIGNIFICANT WEATHER AND/OR OBSTRUCTIONS TO VISIBILITY.

WIZ001-002-006>008-014>016-023>028-291100-
NORTHWEST WISCONSIN

CITY           SKY/WX    TMP DP  RH WIND       PRES   REMARKS
SUPERIOR ARPT  CLEAR     25  24  99 CALM      30.22F
ASHLAND        PTCLDY    25  22  88 NW6       30.21F WCI  18
HAYWARD        CLOUDY    25  22  88 NE6       30.18F WCI  18
SIREN          CLEAR     30  27  90 CALM      30.21S
CUMBERLAND     PTCLDY    32  27  80 NE3       30.19R
RICE LAKE      PTCLDY    31  29  90 CALM      30.19F
CHETEK         NOT AVBL
LADYSMITH      CLEAR     31  27  84 NE3       30.20R
EAU CLAIRE     CLOUDY    34  26  72 NE6       30.21R WCI  29
MENOMONIE      CLOUDY    35  28  74 N3        30.22R
NEW RICHMOND   CLOUDY    33  27  76 E3        30.21R
OSCEOLA        CLEAR     34  27  76 CALM      30.24R
$$

WIZ003>005-009-010-017-018-291100-
NORTH CENTRAL WISCONSIN

CITY           SKY/WX    TMP DP  RH WIND       PRES   REMARKS
MANITOWISH WTR CLEAR     29  26  88 N5        30.16F WCI  23
ARBOR VITAE    CLEAR     29  26  88 N3        30.15S
WOODRUFF       CLEAR     29  26  88 N3        30.15S
RHINELANDER    CLEAR     31  26  82 CALM      30.19R
EAGLE RIVER    CLEAR     28  23  81 N3        30.16R
LAND O LAKES   CLEAR     30  24  78 N6        30.17F WCI  24
PHILLIPS       CLEAR     27  25  91 N3        30.17R
TOMAHAWK       CLEAR     29  25  85 CALM      30.19R
MEDFORD        CLEAR     30  26  83 NE6       30.16R WCI  24
MERRILL        CLEAR     30  27  90 N3        30.21R
$$

WIZ029-030-035-036-043>047-291100-
CENTRAL WISCONSIN

CITY           SKY/WX    TMP DP  RH WIND       PRES   REMARKS
WAUSAU         CLEAR     31  26  82 N3        30.16R
MOSINEE        CLOUDY    32  28  86 NE6       30.21R WCI  26
MARSHFIELD     PTCLDY    33  26  75 NE9       30.19R WCI  25
STEVENS POINT  MOCLDY    31  25  79 SE6       30.25R WCI  25
WAUPACA        CLOUDY    37  27  67 N6        30.24R WCI  32
WAUTOMA        PTCLDY    37  28  70 NE8       30.24R WCI  31
WISC RAPIDS    MOCLDY    35  27  72 S8        30.29R WCI  29
CAMP DOUGLAS   CLOUDY    37  29  73 NE6       30.21R WCI  33
$$

WIZ011>013-019>022-031-037>040-048>050-291100-
NORTHEAST WISCONSIN

CITY           SKY/WX    TMP DP  RH WIND       PRES   REMARKS
ANTIGO         CLEAR     29  26  88 N13       30.16R WCI  19
SHAWANO        CLOUDY    35  28  76 N6        30.22R WCI  30
OCONTO         NOT AVBL
STURGEON BAY   CLEAR     36  26  67 VRB6      30.23R WCI  31
GREEN BAY      CLEAR     36  28  73 N7        30.23R WCI  30
MANITOWOC      CLEAR     37  27  67 N7        30.21R WCI  32
APPLETON       CLEAR     34  27  75 N10       30.20R WCI  26
CLINTONVILLE   PTCLDY    34  27  75 CALM      30.21R
OSHKOSH        CLEAR     38  29  70 N12       30.20R WCI  30
$$

WIZ032>034-041-042-053>061-291100-
SOUTHWEST WISCONSIN

CITY           SKY/WX    TMP DP  RH WIND       PRES   REMARKS
LA CROSSE      CLOUDY    41  30  65 NE10      30.19R
SPARTA         CLOUDY    37  31  77 NE8       30.22R WCI  31
VIROQUA        CLOUDY    37  32  82 NE6       30.17R WCI  33
BOSCOBEL       CLOUDY    41  35  79 NE6       30.15F
PRAIRIE DU CHI CLOUDY    41  33  73 N3        30.15F
PLATTEVILLE    PTCLDY    43  38  83 NE15      30.09F
$$

WIZ056-057-062-063-064-067-068-291100-
SOUTH CENTRAL WISCONSIN

CITY           SKY/WX    TMP DP  RH WIND       PRES   REMARKS
REEDSBURG      CLEAR     38  32  77 N3        30.17R
BARABOO/DELLS  CLEAR     36  31  82 N5        30.17R WCI  32
LONE ROCK      CLOUDY    40  33  76 N8        30.16R WCI  34
MINERAL POINT  MOCLDY    43  36  75 NE13G25   30.09F
MADISON        MOCLDY    42  33  70 N13       30.14R
MIDDLETON      MOCLDY    43  34  72 NE12      30.14R
WATERTOWN      CLOUDY    43  34  70 NE12G17   30.13R
MONROE         CLOUDY    43  36  75 NE17G26   30.10R
JANESVILLE     CLOUDY    45  34  65 NE15      30.11R
$$

WIZ051-052-058>065-066-070>072-291100-
SOUTHEAST WISCONSIN

CITY           SKY/WX    TMP DP  RH WIND       PRES   REMARKS
MILWAUKEE      CLOUDY    43  33  68 NE13      30.13R
WAUKESHA       CLOUDY    39  32  75 N12G20    30.13R WCI  32
MILWAUKEE/TIMM CLOUDY    41  30  65 NE13      30.13R
RACINE         CLOUDY    42  34  73 NE16G28   30.14R
KENOSHA        CLOUDY    43  33  68 NE15G24   30.11R
FOND DU LAC    PTCLDY    41  28  60 NE10      30.20R
SHEBOYGAN      CLOUDY    39  35  86 NE14      30.18R WCI  31
WEST BEND      CLOUDY    41  32  70 NE9       30.14F
JUNEAU         CLOUDY    40  32  71 N6        30.16S
$$

LSZ147-162-291100-
LAKE SUPERIOR

STATION/POSITION TIME  TEMP    WIND        PRES    WAVE
                       AIR SEA DIR/SP/G            HT/PER
                 (UTC) (F)     (DEG/KT/KT) (MB)    (FT/S)
DEVILS ISLAND    1000   36     300/  7/  8 1024.5F
PORT WING        0830   29     170/  4/  4 1024.0R
SAXON HARBOR     0940   27     200/  3/  5 1023.4F
$$

LMZ867-665-643>646-291100-
LAKE MICHIGAN

STATION/POSITION TIME  TEMP    WIND        PRES    WAVE
                       AIR SEA DIR/SP/G            HT/PER
                 (UTC) (F)     (DEG/KT/KT) (MB)    (FT/S)
CHAMBERS ISLAND  0940   36     340/ 13/ 16 1021.7R
N MID LAKE BUOY  0950   36 37  360/ 12/ 14 1022.8R   2/ 4
NORTHPORT PIER   0940   37     340/ 13/ 17 1021.7R
KEWAUNEE LAKESHO 0948   38      20/ 10/ 14 1022.5R
SHEBOYGAN LAKESH 1000   40      20/ 22/ 24 1022.5R
PORT WASHINGTON  0940   42      30/ 10/ 15 1021.7R
MILWAUKEE LAKESH 0950   42      20/ 18/ 20   N/A
S MID LAKE BUOY  0850   42 41   20/ 16/ 19 1018.6F   2/ 4
KENOSHA   LAKESH 1000   43      30/ 22/ 26 1019.6
$$

TC  - TEMPERATURE IN CELSIUS
VSB - VISIBILITY IN STATUTE MILES
WCI - WIND CHILL INDEX
HX  - HEAT INDEX





USA.gov is the U.S. government's official web portal to all federal, state and local government web resources and services.